FW5354 Weather Reports


Display with metric or nautical units.
time (UTC)temp
F
wind
direction
speed
MPH
gust
MPH
rain 1hr
in
rain 24hr
in
rain mn
in
humidity
%
barometer
mb
20260507174602 70 188 2.0 6.0 0.00 0.01 0.00 75 1013.8
20260507173053 70 256 1.0 7.0 0.00 0.01 0.00 75 1014.1
20260507171549 69 231 2.0 6.0 0.00 0.01 0.00 76 1014.2
20260507170047 68 266 1.0 5.0 0.00 0.01 0.00 76 1014.3
20260507164604 68 331 3.0 5.0 0.00 0.01 0.00 76 1014.4
20260507163047 68 100 1.0 4.0 0.00 0.01 0.00 76 1014.1
20260507161551 67 162 1.0 7.0 0.00 0.01 0.00 77 1013.9
20260507160038 66 219 2.0 7.0 0.00 0.01 0.01 78 1013.5
20260507154537 65 335 2.0 8.0 0.00 0.01 0.01 79 1013.6
20260507153041 64 103 2.0 9.0 0.00 0.01 0.01 79 1013.8
20260507151538 64 284 3.0 7.0 0.00 0.01 0.01 79 1014.0
20260507150038 63 146 0.0 6.0 0.00 0.01 0.01 79 1014.1
20260507144538 63 229 1.0 7.0 0.00 0.01 0.01 79 1014.1
20260507143040 64 237 2.0 6.0 0.00 0.01 0.01 79 1013.7
20260507141536 63 58 3.0 10.0 0.00 0.01 0.01 79 1013.2
20260507140041 63 172 2.0 9.0 0.00 0.01 0.01 79 1013.1
20260507134534 63 271 1.0 7.0 0.00 0.01 0.01 79 1013.5
20260507133034 63 196 1.0 8.0 0.00 0.01 0.01 78 1013.9
20260507131536 64 183 0.0 6.0 0.00 0.01 0.01 78 1014.1
20260507130038 64 285 4.0 8.0 0.00 0.01 0.01 79 1014.0
20260507124537 64 257 1.0 5.0 0.00 0.01 0.01 79 1013.7
20260507123026 64 203 1.0 5.0 0.00 0.01 0.01 79 1013.3
20260507121525 65 230 3.0 7.0 0.00 0.01 0.01 79 1012.9
20260507120022 65 162 1.0 6.0 0.00 0.01 0.01 79 1012.5
20260507114527 65 213 1.0 7.0 0.00 0.01 0.01 78 1012.3
20260507113037 65 238 2.0 5.0 0.00 0.01 0.01 78 1012.3
20260507111519 66 188 1.0 6.0 0.00 0.01 0.01 78 1011.7
20260507110018 66 177 0.0 3.0 0.00 0.01 0.01 78 1012.0
20260507104515 66 141 1.0 4.0 0.00 0.01 0.01 78 1011.6
20260507103019 66 177 0.0 4.0 0.00 0.01 0.01 78 1011.4
20260507101519 66 151 0.0 3.0 0.00 0.01 0.01 78 1011.5
20260507100014 66 178 0.0 4.0 0.00 0.01 0.01 78 1011.1
20260507094517 66 89 0.0 4.0 0.00 0.01 0.01 78 1010.9
20260507093013 66 219 1.0 4.0 0.00 0.01 0.01 78 1011.1
20260507091512 66 321 1.0 3.0 0.00 0.01 0.01 78 1010.6
20260507090013 66 238 1.0 3.0 0.00 0.01 0.01 78 1010.9
20260507084512 66 187 0.0 8.0 0.00 0.01 0.01 79 1010.8
20260507083010 66 96 1.0 4.0 0.00 0.01 0.01 79 1011.0
20260507081512 66 134 2.0 8.0 0.00 0.01 0.01 79 1010.7
20260507080012 66 238 0.0 7.0 0.00 0.01 0.01 79 1010.9
20260507074511 66 103 0.0 3.0 0.00 0.01 0.01 79 1010.9
20260507073010 66 114 0.0 6.0 0.00 0.01 0.01 79 1011.2
20260507071513 66 139 1.0 4.0 0.00 0.01 0.01 79 1011.2
20260507070013 66 263 1.0 6.0 0.00 0.01 0.01 79 1011.5
20260507064511 67 217 1.0 8.0 0.00 0.01 0.01 79 1011.2
20260507063009 67 266 2.0 6.0 0.00 0.01 0.01 79 1011.5
20260507061504 67 213 3.0 7.0 0.00 0.01 0.01 78 1011.4
20260507060001 67 252 1.0 5.0 0.00 0.01 0.01 78 1011.0
20260507054600 68 278 1.0 8.0 0.00 0.01 0.01 78 1011.1
20260507053058 68 236 2.0 6.0 0.00 0.01 0.01 78 1010.9
20260507051556 68 72 1.0 7.0 0.00 0.01 0.01 78 1010.8
20260507050055 68 108 1.0 5.0 0.00 0.01 0.01 78 1010.8
20260507044605 69 202 1.0 6.0 0.00 0.01 0.01 78 1010.9
20260507043103 69 229 1.0 5.0 0.00 0.01 0.01 78 1010.8
20260507041556 69 162 0.0 3.0 0.00 0.01 0.01 78 1010.8
20260507040050 69 263 2.0 6.0 0.00 0.01 0.01 78 1010.6
20260507034552 70 160 2.0 7.0 0.00 0.01 0.01 78 1010.5
20260507033045 70 271 0.0 4.0 0.00 0.01 0.01 78 1010.6
20260507031546 71 259 2.0 5.0 0.00 0.01 0.01 77 1010.1
20260507030039 71 217 1.0 5.0 0.00 0.01 0.01 77 1010.0
20260507024536 72 207 1.0 5.0 0.00 0.01 0.01 77 1009.6
20260507023035 72 265 1.0 6.0 0.00 0.01 0.01 77 1009.3
20260507021539 72 142 0.0 4.0 0.00 0.01 0.01 77 1009.0
20260507020046 73 290 1.0 6.0 0.00 0.01 0.01 77 1008.7
20260507014535 73 120 0.0 6.0 0.00 0.01 0.01 77 1008.5
20260507013030 73 184 1.0 5.0 0.00 0.01 0.01 77 1008.1
20260507011537 74 263 3.0 5.0 0.00 0.01 0.01 77 1007.8
20260507010024 74 257 2.0 8.0 0.00 0.01 0.01 77 1007.5
20260507004519 75 233 3.0 9.0 0.00 0.01 0.01 77 1007.1
20260507003015 76 279 1.0 7.0 0.00 0.01 0.01 77 1007.0
20260507001540 77 278 3.0 7.0 0.00 0.01 0.01 77 1006.7
20260507000014 79 259 3.0 7.0 0.00 0.01 0.01 75 1006.5
20260506234505 84 287 0.0 3.0 0.00 0.01 0.01 75 1006.2
20260506233004 85 113 0.0 0.0 0.00 0.01 0.01 75 1005.9
20260506231503 85 138 0.0 2.0 0.00 0.01 0.01 75 1005.9
20260506230002 85 146 0.0 2.0 0.00 0.01 0.01 75 1005.9
20260506224501 86 138 0.0 0.0 0.00 0.01 0.01 74 1005.9
20260506223002 87 144 0.0 0.0 0.00 0.01 0.01 73 1005.8
20260506221503 87 110 0.0 0.0 0.00 0.01 0.01 74 1005.8
20260506220003 86 109 0.0 0.0 0.00 0.01 0.01 74 1005.8
20260506214501 87 109 0.0 0.0 0.01 0.01 0.01 75 1005.8
20260506213105 84 109 0.0 0.0 0.01 0.01 0.01 76 1005.8
20260506211558 85 109 0.0 0.0 0.01 0.01 0.01 76 1006.0
20260506210100 86 109 0.0 0.0 0.01 0.01 0.01 76 1005.9
20260506204558 86 109 0.0 1.0 0.00 0.00 0.00 73 1006.0
20260506203119 86 109 0.0 0.0 0.00 0.00 0.00 73 1006.3
20260506201555 86 109 0.0 0.0 0.00 0.00 0.00 73 1006.3
20260506200057 85 109 0.0 0.0 0.00 0.00 0.00 74 1006.3
20260506194554 85 109 0.0 1.0 0.00 0.00 0.00 73 1006.6
20260506193059 87 111 0.0 0.0 0.00 0.00 0.00 72 1006.5
20260506191557 87 108 0.0 2.0 0.00 0.00 0.00 71 1006.7
20260506190053 85 99 1.0 3.0 0.00 0.00 0.00 73 1006.9
20260506184552 86 103 0.0 1.0 0.00 0.00 0.00 73 1007.1
20260506183047 85 109 0.0 0.0 0.00 0.00 0.00 74 1007.1
20260506181549 84 108 0.0 1.0 0.00 0.00 0.00 75 1007.4
20260506180037 83 108 0.0 0.0 0.00 0.00 0.00 76 1007.8